Flight Track Log - Related Links

Times and Time Zones

All times are in EDT time to prevent confusion due to time zone crossing. See the UAL33 flight status page for this flight to view local times or setup timezone preferences in your user account.

Time Position Orientation Groundspeed Altitude Reporting Facility
EDT Latitude Longitude Course Direction KTS MPH feet Rate Location/Type
Tue 21:59:29 41.9660 -87.8850 217° Southwest 96 110  Level FlightAware ADS-B
Tue 21:59:53 41.9530 -87.9000 221° Southwest 172 198 700 2,182 Climbing FlightAware ADS-B
Tue 22:00:02 41.9470 -87.9070 221° Southwest 170 196 1,200 2,083 Climbing FlightAware ADS-B
Tue 22:01:05 41.9090 -87.9110 184° South 207 238 3,200 2,759 Climbing FlightAware ADS-B
Tue 22:01:29 41.8660 -87.9080 177° South 246 283 5,200 4,500 Climbing FlightAware ADS-B
Tue 22:01:45 41.8480 -87.9060 175° South 253 291 6,200 3,667 Climbing FlightAware ADS-B
Tue 22:02:05 41.8250 -87.9100 187° South 258 297 7,400 3,545 Climbing FlightAware ADS-B
Tue 22:02:29 41.7970 -87.9180 192° South 267 307 8,800 3,153 Climbing FlightAware ADS-B
Tue 22:03:04 41.7530 -87.9300 192° South 294 338 10,500 1,941 Climbing FlightAware ADS-B
Tue 22:03:37 41.7180 -87.9410 193° South 336 387 11,000 2,471 Climbing FlightAware ADS-B
Tue 22:04:12 41.6440 -87.9620 192° South 370 426 13,300 3,353 Climbing FlightAware ADS-B
Tue 22:04:45 41.5880 -87.9780 192° South 384 442 14,800 3,000 Climbing FlightAware ADS-B
Tue 22:05:20 41.5260 -88.0040 197° South 398 458 16,700 3,127 Climbing FlightAware ADS-B
Tue 22:05:56 41.4660 -88.0440 207° Southwest 411 473 18,500 2,877 Climbing FlightAware ADS-B
Tue 22:06:33 41.4040 -88.0860 207° Southwest 423 487 20,200 2,870 Climbing FlightAware ADS-B
Tue 22:07:05 41.3470 -88.1250 207° Southwest 431 496 21,800 2,783 Climbing FlightAware ADS-B
Tue 22:07:42 41.2790 -88.1710 207° Southwest 442 509 23,400 2,583 Climbing FlightAware ADS-B
Tue 22:08:17 41.2150 -88.2130 206° Southwest 452 520 24,900 2,687 Climbing FlightAware ADS-B
Tue 22:08:49 41.1550 -88.2540 207° Southwest 457 526 26,400 2,657 Climbing FlightAware ADS-B
Tue 22:09:27 41.0840 -88.3020 207° Southwest 462 532 28,000 2,471 Climbing FlightAware ADS-B
Tue 22:09:57 41.0260 -88.3410 207° Southwest 466 536 29,200 2,206 Climbing FlightAware ADS-B
Tue 22:10:35 40.9520 -88.3900 207° Southwest 474 545 30,500 2,000 Climbing FlightAware ADS-B
Tue 22:11:12 40.8780 -88.4390 207° Southwest 481 554 31,700 1,833 Climbing FlightAware ADS-B
Tue 22:11:47 40.8080 -88.4850 206° Southwest 489 563 32,700 1,500 Climbing FlightAware ADS-B
Tue 22:12:20 40.7460 -88.5260 207° Southwest 498 573 33,400 1,739 Climbing FlightAware ADS-B
Tue 22:12:56 40.6760 -88.5730 207° Southwest 495 570 34,700 2,028 Climbing FlightAware ADS-B
Tue 22:13:31 40.6010 -88.6220 206° Southwest 493 567 35,800 1,765 Climbing FlightAware ADS-B
Tue 22:14:04 40.5300 -88.6690 207° Southwest 494 568 36,700 1,629 Climbing FlightAware ADS-B
Tue 22:14:41 40.4530 -88.7190 206° Southwest 494 568 37,700 1,479 Climbing FlightAware ADS-B
Tue 22:15:17 40.3840 -88.7650 207° Southwest 491 565 38,500 1,583 Climbing FlightAware ADS-B
Tue 22:15:53 40.3070 -88.8150 206° Southwest 483 556 39,600 1,343 Climbing FlightAware ADS-B
Tue 22:16:24 40.2440 -88.8550 206° Southwest 483 556 40,000 393 Climbing FlightAware ADS-B
Tue 22:16:54 40.1880 -88.8920 207° Southwest 484 557 40,000  Level FlightAware ADS-B
Tue 22:17:34 40.1040 -88.9460 206° Southwest 484 557 40,000  Level FlightAware ADS-B
Tue 22:18:11 40.0320 -88.9930 207° Southwest 487 560 40,000  Level FlightAware ADS-B
Tue 22:18:46 39.9590 -89.0400 206° Southwest 488 562 40,000  Level FlightAware ADS-B
Tue 22:19:22 39.8860 -89.0870 206° Southwest 489 563 40,000  Level FlightAware ADS-B
Tue 22:19:56 39.8150 -89.1320 206° Southwest 489 563 40,000  Level FlightAware ADS-B
Tue 22:20:32 39.7450 -89.1770 206° Southwest 490 564 40,000  Level FlightAware ADS-B
Tue 22:21:05 39.6760 -89.2190 205° Southwest 494 568 40,000  Level FlightAware ADS-B
Tue 22:21:40 39.6040 -89.2590 203° Southwest 494 568 40,000  Level FlightAware ADS-B
Tue 22:22:16 39.5260 -89.3010 203° Southwest 496 571 40,000  Level FlightAware ADS-B
Tue 22:22:52 39.4550 -89.3400 203° Southwest 495 570 40,000  Level FlightAware ADS-B
Tue 22:23:24 39.3850 -89.3790 203° Southwest 493 567 40,000  Level FlightAware ADS-B
Tue 22:24:00 39.3100 -89.4200 203° Southwest 494 568 40,000  Level FlightAware ADS-B
Tue 22:24:32 39.2400 -89.4590 203° Southwest 493 567 40,000  Level FlightAware ADS-B
Tue 22:25:13 39.1580 -89.5050 204° Southwest 493 567 40,000  Level FlightAware ADS-B
Tue 22:25:44 39.0880 -89.5430 203° Southwest 493 567 40,000  Level FlightAware ADS-B
Tue 22:26:20 39.0130 -89.5840 203° Southwest 493 567 40,000  Level FlightAware ADS-B
Tue 22:26:54 38.9480 -89.6200 203° Southwest 494 568 40,000  Level FlightAware ADS-B
Tue 22:27:33 38.8600 -89.6670 203° Southwest 493 567 40,000  Level FlightAware ADS-B
Tue 22:28:03 38.8010 -89.7000 204° Southwest 494 568 40,000  Level FlightAware ADS-B
Tue 22:28:46 38.7190 -89.7430 202° Southwest 494 568 40,000  Level FlightAware ADS-B
Tue 22:29:18 38.6400 -89.7870 204° Southwest 495 570 40,000  Level FlightAware ADS-B
Tue 22:29:57 38.5590 -89.8310 203° Southwest 495 570 40,000  Level FlightAware ADS-B
Tue 22:30:30 38.4980 -89.8630 202° Southwest 494 568 40,000  Level FlightAware ADS-B
Tue 22:31:26 38.3770 -89.9270 203° Southwest 493 567 40,000  Level FlightAware ADS-B
Tue 22:32:05 38.2890 -89.9760 204° Southwest 493 567 40,000  Level FlightAware ADS-B
Tue 22:32:40 38.2140 -90.0160 203° Southwest 493 567 40,000  Level FlightAware ADS-B
Tue 22:33:14 38.1540 -90.0470 202° Southwest 493 567 40,000  Level FlightAware ADS-B
Tue 22:33:50 38.0900 -90.0800 202° Southwest 493 567 40,000  Level FlightAware ADS-B
Tue 22:34:23 37.9980 -90.1300 203° Southwest 490 564 40,000  Level FlightAware ADS-B
Tue 22:35:06 37.9220 -90.1700 203° Southwest 490 564 40,000  Level FlightAware ADS-B
Tue 22:35:36 37.8440 -90.2120 203° Southwest 493 567 40,000  Level FlightAware ADS-B
Tue 22:36:23 37.7560 -90.2580 202° Southwest 494 568 40,000  Level FlightAware ADS-B
Tue 22:36:59 37.6910 -90.2910 202° Southwest 494 568 40,000  Level FlightAware ADS-B
Tue 22:37:35 37.6260 -90.3240 202° Southwest 494 568 40,000  Level FlightAware ADS-B
Tue 22:38:11 37.5610 -90.3570 202° Southwest 494 568 40,000  Level FlightAware ADS-B
Tue 22:38:47 37.4960 -90.3900 202° Southwest 494 568 40,000  Level FlightAware ADS-B
Tue 22:39:23 37.4320 -90.4230 202° Southwest 494 568 40,000  Level FlightAware ADS-B
Tue 22:40:02 37.2830 -90.5060 204° Southwest 497 572 40,000  Level FlightAware ADS-B
Tue 22:40:42 37.1970 -90.5510 203° Southwest 498 573 40,000  Level FlightAware ADS-B
Tue 22:41:16 37.1250 -90.5880 202° Southwest 497 572 40,000  Level FlightAware ADS-B
Tue 22:41:41 37.0750 -90.6130 202° Southwest 498 573 40,000 -237 Level FlightAware ADS-B
Tue 22:42:32 36.9640 -90.6710 203° Southwest 498 573 39,700 -795 Descending FlightAware ADS-B
Tue 22:43:04 36.8950 -90.7060 202° Southwest 500 575 38,900 -1,588 Descending FlightAware ADS-B
Tue 22:43:40 36.8170 -90.7470 203° Southwest 503 579 37,900 -1,500 Descending FlightAware ADS-B
Tue 22:44:16 36.7390 -90.7860 202° Southwest 503 579 37,100 -1,250 Descending FlightAware ADS-B
Tue 22:44:52 36.6620 -90.8250 202° Southwest 504 580 36,400 -1,286 Descending FlightAware ADS-B
Tue 22:45:26 36.5900 -90.8620 202° Southwest 501 577 35,600 -1,343 Descending FlightAware ADS-B
Tue 22:45:59 36.5200 -90.8980 202° Southwest 500 575 34,900 -1,371 Descending FlightAware ADS-B
Tue 22:46:36 36.4390 -90.9390 202° Southwest 500 575 34,000 -1,479 Descending FlightAware ADS-B
Tue 22:47:12 36.3610 -90.9780 202° Southwest 500 575 33,100 -1,500 Descending FlightAware ADS-B
Tue 22:47:44 36.2930 -91.0130 203° Southwest 500 575 32,300 -1,636 Descending FlightAware ADS-B
Tue 22:48:18 36.2220 -91.0480 202° Southwest 501 577 31,300 -1,944 Descending FlightAware ADS-B
Tue 22:48:55 36.1420 -91.0890 202° Southwest 506 582 30,000 -1,026 Descending FlightAware ADS-B
Tue 22:49:34 36.0700 -91.1250 202° Southwest 506 582 30,000  Level FlightAware ADS-B
Tue 22:50:10 36.0040 -91.1580 202° Southwest 506 582 30,000  Level FlightAware ADS-B
Tue 22:50:46 35.9370 -91.1910 202° Southwest 506 582 30,000 -1,667 Level FlightAware ADS-B
Tue 22:51:22 35.8220 -91.2490 202° Southwest 507 583 28,000 -1,739 Descending FlightAware ADS-B
Tue 22:51:55 35.7560 -91.2820 202° Southwest 508 585 28,000  Level FlightAware ADS-B
Tue 22:52:31 35.6900 -91.3150 202° Southwest 508 585 28,000  Level FlightAware ADS-B
Tue 22:53:07 35.6230 -91.3480 202° Southwest 508 585 28,000  Level FlightAware ADS-B
Tue 22:53:43 35.5560 -91.3810 202° Southwest 508 585 28,000  Level FlightAware ADS-B
Tue 22:54:19 35.4410 -91.4370 202° Southwest 513 590 28,000  Level FlightAware ADS-B
Tue 22:54:55 35.3740 -91.4690 201° Southwest 513 590 28,000  Level FlightAware ADS-B
Tue 22:55:32 35.3040 -91.5010 200° South 513 590 28,000  Level FlightAware ADS-B
Tue 22:56:08 35.2360 -91.5330 201° Southwest 513 590 28,000  Level FlightAware ADS-B
Tue 22:56:44 35.1680 -91.5650 201° Southwest 513 590 28,000  Level FlightAware ADS-B
Tue 22:57:21 35.0990 -91.5980 201° Southwest 513 590 28,000  Level FlightAware ADS-B
Tue 22:58:33 34.8917 -91.7092 201° Southwest 516 594 28,000  Level Memphis Center
Tue 22:59:33 34.7575 -91.7728 201° Southwest 516 594 28,000  Level Memphis Center
Tue 23:00:33 34.6231 -91.8361 201° Southwest 516 594 28,000  Level Memphis Center
Tue 23:01:33 34.4908 -91.8994 202° Southwest 516 594 28,000  Level Memphis Center
Tue 23:02:33 34.3567 -91.9622 201° Southwest 516 594 28,000  Level Memphis Center
Tue 23:03:33 34.2264 -92.0278 203° Southwest 516 594 28,000  Level Memphis Center
Tue 23:04:33 34.0897 -92.0928 202° Southwest 516 594 28,000  Level Memphis Center
Tue 23:05:33 33.9594 -92.1528 201° Southwest 516 594 28,000  Level Memphis Center
Tue 23:06:46 33.7972 -92.2350 203° Southwest 516 594 28,000  Level Fort Worth Center
Tue 23:07:46 33.6561 -92.3006 201° Southwest 471 542 28,000  Level Fort Worth Center
Tue 23:08:46 33.5331 -92.3550 200° South 494 568 28,000  Level Fort Worth Center
Tue 23:09:46 33.3897 -92.4256 202° Southwest 506 582 28,000  Level Fort Worth Center
Tue 23:10:46 33.2756 -92.4394 186° South 506 582 28,000  Level Fort Worth Center
Tue 23:11:46 33.1017 -92.4714 189° South 506 582 28,000  Level Fort Worth Center
Tue 23:12:46 32.9586 -92.4967 188° South 518 596 28,000  Level Fort Worth Center
Tue 23:18:41 32.1027 -92.6540 188° South 521 600 28,000  Level FlightAware ADS-B
Tue 23:19:34 31.9819 -92.6800 188° South 521 600 28,000  Level Houston Center
Tue 23:20:35 31.8839 -92.7494 211° Southwest 519 597 28,000  Level Houston Center
Tue 23:27:00 31.1398 -93.4680 211° Southwest 519 597 28,000  Level FlightAware ADS-B
Tue 23:27:28 31.0895 -93.5164 219° Southwest 517 595 28,000  Level FlightAware ADS-B
Tue 23:27:49 31.0512 -93.5575 223° Southwest 516 594 28,000  Level FlightAware ADS-B
Tue 23:28:14 31.0101 -93.6087 227° Southwest 516 594 28,000 -316 Level FlightAware ADS-B
Tue 23:28:46 30.9618 -93.6753 230° Southwest 513 590 27,700 -1,091 Descending FlightAware ADS-B
Tue 23:29:20 30.9113 -93.7456 230° Southwest 493 567 26,800 -1,219 Descending FlightAware ADS-B
Tue 23:29:50 30.8680 -93.8055 230° Southwest 466 536 26,400 -1,200 Descending FlightAware ADS-B
Tue 23:30:20 30.8265 -93.8630 230° Southwest 453 521 25,600 -1,770 Descending FlightAware ADS-B
Tue 23:30:51 30.7862 -93.9187 230° Southwest 444 511 24,600 -1,967 Descending FlightAware ADS-B
Tue 23:31:21 30.7465 -93.9732 230° Southwest 435 501 23,600 -2,000 Descending FlightAware ADS-B
Tue 23:31:51 30.7077 -94.0265 230° Southwest 427 491 22,600 -2,300 Descending FlightAware ADS-B
Tue 23:32:21 30.6696 -94.0789 230° Southwest 419 482 21,300 -2,557 Descending FlightAware ADS-B
Tue 23:32:52 30.6315 -94.1311 230° Southwest 412 474 20,000 -2,557 Descending FlightAware ADS-B
Tue 23:33:22 30.5942 -94.1826 230° Southwest 406 467 18,700 -2,478 Descending FlightAware ADS-B
Tue 23:34:24 30.5217 -94.2818 230° Southwest 390 449 16,200 -2,289 Descending FlightAware ADS-B
Tue 23:35:54 30.4169 -94.4243 230° Southwest 381 438 12,900 -1,846 Descending FlightAware ADS-B
Tue 23:37:26 30.3154 -94.5624 230° Southwest 343 395 10,600 -1,279 Descending FlightAware ADS-B
Tue 23:37:56 30.2854 -94.6029 229° Southwest 319 367 10,300 -623 Descending FlightAware ADS-B
Tue 23:39:12 30.2176 -94.6947 230° Southwest 287 330 9,500 -935 Descending FlightAware ADS-B
Tue 23:40:30 30.1512 -94.7843 229° Southwest 277 319 7,900 -1,563 Descending FlightAware ADS-B
Tue 23:41:34 30.0984 -94.8556 229° Southwest 266 306 5,800 -1,823 Descending FlightAware ADS-B
Tue 23:41:49 30.0861 -94.8722 229° Southwest 265 305 5,500 -986 Descending FlightAware ADS-B
Tue 23:42:47 30.0405 -94.9332 229° Southwest 253 291 4,600 -771 Descending FlightAware ADS-B
Tue 23:42:59 30.0320 -94.9448 230° Southwest 246 283 4,600 -436 Level FlightAware ADS-B
Tue 23:43:42 30.0018 -94.9855 229° Southwest 224 258 4,200 -522 Descending FlightAware ADS-B
Tue 23:43:45 29.9996 -94.9887 232° Southwest 223 257 4,200 -1,000 Level FlightAware ADS-B
Tue 23:43:48 29.9979 -94.9919 238° Southwest 222 255 4,100 -429 Descending FlightAware ADS-B
Tue 23:43:59 29.9943 -95.0036 256° West 219 252 4,100 -400 Level FlightAware ADS-B
Tue 23:44:03 29.9935 -95.0084 259° West 217 250 4,000 -800 Descending FlightAware ADS-B
Tue 23:44:14 29.9927 -95.0208 267° West 211 243 3,900 -316 Descending FlightAware ADS-B
Tue 23:44:22 29.9925 -95.0297 269° West 206 237 3,900  Level FlightAware ADS-B
Tue 23:44:37 29.9928 -95.0460 271° West 199 229 3,900  Level FlightAware ADS-B
Tue 23:44:52 29.9931 -95.0616 271° West 189 217 3,900  Level FlightAware ADS-B
Tue 23:45:02 29.9933 -95.0716 271° West 188 216 3,900  Level FlightAware ADS-B
Tue 23:45:17 29.9934 -95.0866 270° West 188 216 3,900 -581 Level FlightAware ADS-B
Tue 23:45:33 29.9934 -95.1025 270° West 189 217 3,600 -1,091 Descending FlightAware ADS-B
Tue 23:45:50 29.9934 -95.1194 270° West 192 221 3,300 -938 Descending FlightAware ADS-B
Tue 23:46:05 29.9934 -95.1349 270° West 190 219 3,100 -923 Descending FlightAware ADS-B
Tue 23:47:08 29.9935 -95.1970 270° West 177 204 2,100 -987 Descending FlightAware ADS-B
Tue 23:47:24 29.9935 -95.2120 270° West 167 192 1,800 -955 Descending FlightAware ADS-B
Tue 23:47:52 29.9935 -95.2350 270° West 142 163 1,400 -686 Descending FlightAware ADS-B
Tue 23:47:59 29.9935 -95.2405 270° West 140 161 1,400 -522 Level FlightAware ADS-B
Tue 23:48:15 29.9935 -95.2518 270° West 137 158 1,200 -774 Descending FlightAware ADS-B
Tue 23:48:30 29.9935 -95.2631 270° West 137 158 1,000 -818 Descending FlightAware ADS-B
Tue 23:48:37 29.9935 -95.2681 270° West 138 159 900 -800 Descending FlightAware ADS-B
Tue 23:48:45 29.9935 -95.2737 270° West 139 160 800 -522 Descending FlightAware ADS-B
Tue 23:49:00 29.9934 -95.2850 269° West 140 161 700 -571 Descending FlightAware ADS-B
Tue 23:49:06 29.9933 -95.2896 269° West 140 161 600 -750 Descending FlightAware ADS-B
Tue 23:49:16 29.9934 -95.2974 271° West 141 162 500 -720 Descending FlightAware ADS-B
Tue 23:49:31 29.9935 -95.3086 271° West 141 162 300 -800 Descending FlightAware ADS-B
Tue 23:49:50 29.9935 -95.3228 270° West 141 162 -947 Descending FlightAware ADS-B

Login

Don't have an account? Register now (free) for customized features, flight alerts, and more!